owner,sensor,date,latitude,longitude,vertical_datum,direction_of_sea_water_velocity,sea_water_speed,upward_sea_water_velocity,qcFlag 
TABS,ioos:station:wmo:42044:1,2009-01-24T05:00:00Z,26.1914,-97.0507,2.0,3.600338815,21.02148425,-99999.0,'11111222,11111222,99999999' 
TABS,ioos:station:wmo:42044:1,2009-01-24T05:30:00Z,26.1914,-97.0507,2.0,3.571765544,22.47364901,-99999.0,'11111222,11111222,99999999' 
TABS,ioos:station:wmo:42044:1,2009-01-24T06:00:00Z,26.1914,-97.0507,2.0,10.09869485,23.09783756,-99999.0,'11111222,11111222,99999999' 
TABS,ioos:station:wmo:42044:1,2009-01-24T06:30:00Z,26.1914,-97.0507,2.0,10.17504253,22.07720317,-99999.0,'11111222,11111222,99999999' 
TABS,ioos:station:wmo:42044:1,2009-01-24T07:00:00Z,26.1914,-97.0507,2.0,6.892005174,20.41752678,-99999.0,'11111222,11111222,99999999' 
TABS,ioos:station:wmo:42044:1,2009-01-24T07:30:00Z,26.1914,-97.0507,2.0,4.036209288,19.74897719,-99999.0,'11111222,11111222,99999999' 
TABS,ioos:station:wmo:42044:1,2009-01-24T08:00:00Z,26.1914,-97.0507,2.0,1.956840996,20.50195357,-99999.0,'11111222,11111222,99999999' 
TABS,ioos:station:wmo:42044:1,2009-01-24T08:30:00Z,26.1914,-97.0507,2.0,9.955704337,20.24484132,-99999.0,'11111222,11111222,99999999' 
TABS,ioos:station:wmo:42044:1,2009-01-24T09:00:00Z,26.1914,-97.0507,2.0,10.05955595,20.66771879,-99999.0,'11111222,11111222,99999999' 
TABS,ioos:station:wmo:42044:1,2009-01-24T09:30:00Z,26.1914,-97.0507,2.0,8.636535749,18.24689563,-99999.0,'11111222,11111222,99999999' 
TABS,ioos:station:wmo:42044:1,2009-01-24T10:00:00Z,26.1914,-97.0507,2.0,11.72754199,18.84333835,-99999.0,'11111222,11111222,99999999' 
TABS,ioos:station:wmo:42044:1,2009-01-24T10:30:00Z,26.1914,-97.0507,2.0,8.351779693,18.65785893,-99999.0,'11111222,11111222,99999999' 
TABS,ioos:station:wmo:42044:1,2009-01-24T11:00:00Z,26.1914,-97.0507,2.0,10.59216352,20.34668523,-99999.0,'11111222,11111222,99999999' 
TABS,ioos:station:wmo:42044:1,2009-01-24T11:30:00Z,26.1914,-97.0507,2.0,13.8621118,15.94436578,-99999.0,'11111222,11111222,99999999' 
TABS,ioos:station:wmo:42044:1,2009-01-24T12:00:00Z,26.1914,-97.0507,2.0,4.893108473,15.82767829,-99999.0,'11111222,11111222,99999999' 
TABS,ioos:station:wmo:42044:1,2009-01-24T12:30:00Z,26.1914,-97.0507,2.0,5.534073596,14.51766166,-99999.0,'11111222,11111222,99999999' 
TABS,ioos:station:wmo:42044:1,2009-01-24T13:00:00Z,26.1914,-97.0507,2.0,11.92362635,16.11774798,-99999.0,'11111222,11111222,99999999' 
TABS,ioos:station:wmo:42044:1,2009-01-24T13:30:00Z,26.1914,-97.0507,2.0,7.666371587,17.46611004,-99999.0,'11111222,11111222,99999999' 
TABS,ioos:station:wmo:42044:1,2009-01-24T14:00:00Z,26.1914,-97.0507,2.0,13.05542715,13.45784901,-99999.0,'11111222,11111222,99999999' 
TABS,ioos:station:wmo:42044:1,2009-01-24T14:30:00Z,26.1914,-97.0507,2.0,1.719468772,12.66570172,-99999.0,'11111222,11111222,99999999' 
TABS,ioos:station:wmo:42044:1,2009-01-24T15:00:00Z,26.1914,-97.0507,2.0,3.661785508,12.99653031,-99999.0,'11111222,11111222,99999999' 
TABS,ioos:station:wmo:42044:1,2009-01-24T15:30:00Z,26.1914,-97.0507,2.0,2.078754011,12.95852615,-99999.0,'11111222,11111222,99999999' 
TABS,ioos:station:wmo:42044:1,2009-01-24T16:00:00Z,26.1914,-97.0507,2.0,359.099005,13.35165158,-99999.0,'11111222,11144222,99999999' 
TABS,ioos:station:wmo:42044:1,2009-01-24T16:30:00Z,26.1914,-97.0507,2.0,7.731762596,13.82568624,-99999.0,'11111222,11111222,99999999' 
TABS,ioos:station:wmo:42044:1,2009-01-24T17:00:00Z,26.1914,-97.0507,2.0,6.20146891,11.38662812,-99999.0,'11111222,11111222,99999999' 
TABS,ioos:station:wmo:42044:1,2009-01-24T17:30:00Z,26.1914,-97.0507,2.0,1.372015753,12.11347184,-99999.0,'11111222,11111222,99999999' 
TABS,ioos:station:wmo:42044:1,2009-01-24T18:00:00Z,26.1914,-97.0507,2.0,23.47388269,10.1172773,-99999.0,'11111222,11111222,99999999' 
TABS,ioos:station:wmo:42044:1,2009-01-24T18:30:00Z,26.1914,-97.0507,2.0,20.87480847,8.840254521,-99999.0,'11133222,11111222,99999999' 
TABS,ioos:station:wmo:42044:1,2009-01-24T19:00:00Z,26.1914,-97.0507,2.0,7.106098858,7.4371231,-99999.0,'11133222,11111222,99999999' 
TABS,ioos:station:wmo:42044:1,2009-01-24T19:30:00Z,26.1914,-97.0507,2.0,347.1129655,5.201009517,-99999.0,'11133222,11111222,99999999' 
TABS,ioos:station:wmo:42044:1,2009-01-24T20:00:00Z,26.1914,-97.0507,2.0,74.74491697,1.026157883,-99999.0,'11133222,11111222,99999999' 
TABS,ioos:station:wmo:42044:1,2009-01-24T20:30:00Z,26.1914,-97.0507,2.0,193.0407974,7.400878326,-99999.0,'11133222,11111222,99999999' 
TABS,ioos:station:wmo:42044:1,2009-01-24T21:00:00Z,26.1914,-97.0507,2.0,181.3704634,12.12346898,-99999.0,'11111222,11111222,99999999' 
TABS,ioos:station:wmo:42044:1,2009-01-24T21:30:00Z,26.1914,-97.0507,2.0,189.3718603,13.57115323,-99999.0,'11111222,11111222,99999999' 
TABS,ioos:station:wmo:42044:1,2009-01-24T22:00:00Z,26.1914,-97.0507,2.0,187.1343313,14.89533148,-99999.0,'11111222,11111222,99999999' 
TABS,ioos:station:wmo:42044:1,2009-01-24T22:30:00Z,26.1914,-97.0507,2.0,195.6029877,20.93137597,-99999.0,'11111222,11111222,99999999' 
TABS,ioos:station:wmo:42044:1,2009-01-24T23:00:00Z,26.1914,-97.0507,2.0,196.2131333,22.02600735,-99999.0,'11111222,11111222,99999999' 
TABS,ioos:station:wmo:42044:1,2009-01-24T23:30:00Z,26.1914,-97.0507,2.0,197.3551222,25.34382962,-99999.0,'11111222,11111222,99999999' 
TABS,ioos:station:wmo:42044:1,2009-01-25T00:00:00Z,26.1914,-97.0507,2.0,203.3658642,28.29009191,-99999.0,'11111222,11111222,99999999' 
TABS,ioos:station:wmo:42044:1,2009-01-25T00:30:00Z,26.1914,-97.0507,2.0,204.206129,28.14463537,-99999.0,'11111222,11111222,99999999' 
TABS,ioos:station:wmo:42044:1,2009-01-25T01:00:00Z,26.1914,-97.0507,2.0,212.8272967,32.42867404,-99999.0,'11111222,11111222,99999999' 
TABS,ioos:station:wmo:42044:1,2009-01-25T01:30:00Z,26.1914,-97.0507,2.0,203.7170134,30.60484439,-99999.0,'11111222,11111222,99999999' 
TABS,ioos:station:wmo:42044:1,2009-01-25T02:00:00Z,26.1914,-97.0507,2.0,208.9762324,31.35507933,-99999.0,'11111222,11111222,99999999' 
TABS,ioos:station:wmo:42044:1,2009-01-25T02:30:00Z,26.1914,-97.0507,2.0,209.6545501,33.93470495,-99999.0,'11111222,11111222,99999999' 
TABS,ioos:station:wmo:42044:1,2009-01-25T03:00:00Z,26.1914,-97.0507,2.0,208.3839517,32.54224639,-99999.0,'11111222,11111222,99999999' 
TABS,ioos:station:wmo:42044:1,2009-01-25T03:30:00Z,26.1914,-97.0507,2.0,212.282966,30.16259438,-99999.0,'11111222,11111222,99999999' 
TABS,ioos:station:wmo:42044:1,2009-01-25T04:00:00Z,26.1914,-97.0507,2.0,210.1378687,29.63631725,-99999.0,'11111222,11111222,99999999' 
TABS,ioos:station:wmo:42044:1,2009-01-25T04:30:00Z,26.1914,-97.0507,2.0,212.3752538,29.86182345,-99999.0,'11111222,11111222,99999999' 
TABS,ioos:station:wmo:42044:1,2009-01-25T05:00:00Z,26.1914,-97.0507,2.0,207.0894162,28.32769669,-99999.0,'11111222,11111222,99999999' 
TABS,ioos:station:wmo:42044:1,2009-01-25T05:30:00Z,26.1914,-97.0507,2.0,212.4092503,24.94555071,-99999.0,'11111222,11111222,99999999' 
TABS,ioos:station:wmo:42044:1,2009-01-25T06:00:00Z,26.1914,-97.0507,2.0,210.2594211,25.26193381,-99999.0,'11111222,11111222,99999999' 
TABS,ioos:station:wmo:42044:1,2009-01-25T06:30:00Z,26.1914,-97.0507,2.0,213.0382469,22.92724144,-99999.0,'11111222,11111222,99999999' 
TABS,ioos:station:wmo:42044:1,2009-01-25T07:00:00Z,26.1914,-97.0507,2.0,213.6082662,21.44473129,-99999.0,'11111222,11111222,99999999' 
TABS,ioos:station:wmo:42044:1,2009-01-25T07:30:00Z,26.1914,-97.0507,2.0,213.4786327,23.33084868,-99999.0,'11111222,11111222,99999999' 
TABS,ioos:station:wmo:42044:1,2009-01-25T08:00:00Z,26.1914,-97.0507,2.0,210.3384882,21.53978876,-99999.0,'11111222,11111222,99999999' 
TABS,ioos:station:wmo:42044:1,2009-01-25T08:30:00Z,26.1914,-97.0507,2.0,215.234966,20.26224568,-99999.0,'11111222,11111222,99999999' 
TABS,ioos:station:wmo:42044:1,2009-01-25T09:00:00Z,26.1914,-97.0507,2.0,209.2040924,17.092747,-99999.0,'11111222,11111222,99999999' 
TABS,ioos:station:wmo:42044:1,2009-01-25T09:30:00Z,26.1914,-97.0507,2.0,205.2825961,16.78812974,-99999.0,'11111222,11111222,99999999' 
TABS,ioos:station:wmo:42044:1,2009-01-25T10:00:00Z,26.1914,-97.0507,2.0,201.7057931,16.73674401,-99999.0,'11111222,11111222,99999999' 
TABS,ioos:station:wmo:42044:1,2009-01-25T10:30:00Z,26.1914,-97.0507,2.0,204.7473196,14.52385968,-99999.0,'11111222,11111222,99999999' 
TABS,ioos:station:wmo:42044:1,2009-01-25T11:00:00Z,26.1914,-97.0507,2.0,201.6074818,14.28376701,-99999.0,'11111222,11111222,99999999' 
TABS,ioos:station:wmo:42044:1,2009-01-25T11:30:00Z,26.1914,-97.0507,2.0,202.2125178,13.96650636,-99999.0,'11111222,11111222,99999999' 
TABS,ioos:station:wmo:42044:1,2009-01-25T12:00:00Z,26.1914,-97.0507,2.0,196.0706212,13.79927534,-99999.0,'11111222,11111222,99999999' 
TABS,ioos:station:wmo:42044:1,2009-01-25T12:30:00Z,26.1914,-97.0507,2.0,198.1887927,13.99953214,-99999.0,'11111222,11111222,99999999' 
TABS,ioos:station:wmo:42044:1,2009-01-25T13:00:00Z,26.1914,-97.0507,2.0,199.4066983,12.4896317,-99999.0,'11111222,11111222,99999999' 
TABS,ioos:station:wmo:42044:1,2009-01-25T13:30:00Z,26.1914,-97.0507,2.0,195.7547276,11.15923384,-99999.0,'11111222,11111222,99999999' 
TABS,ioos:station:wmo:42044:1,2009-01-25T14:00:00Z,26.1914,-97.0507,2.0,200.1841315,11.1870282,-99999.0,'11111222,11111222,99999999' 
TABS,ioos:station:wmo:42044:1,2009-01-25T14:30:00Z,26.1914,-97.0507,2.0,201.5527222,12.84838122,-99999.0,'11111222,11111222,99999999' 
TABS,ioos:station:wmo:42044:1,2009-01-25T15:00:00Z,26.1914,-97.0507,2.0,208.6950537,12.39190865,-99999.0,'11111222,11111222,99999999' 
TABS,ioos:station:wmo:42044:1,2009-01-25T15:30:00Z,26.1914,-97.0507,2.0,207.4106624,11.20839418,-99999.0,'11111222,11111222,99999999' 
TABS,ioos:station:wmo:42044:1,2009-01-25T16:00:00Z,26.1914,-97.0507,2.0,204.702162,12.10799736,-99999.0,'11111222,11111222,99999999' 
TABS,ioos:station:wmo:42044:1,2009-01-25T16:30:00Z,26.1914,-97.0507,2.0,204.2250196,10.62570939,-99999.0,'11111222,11111222,99999999' 
TABS,ioos:station:wmo:42044:1,2009-01-25T17:00:00Z,26.1914,-97.0507,2.0,206.398865,9.266304549,-99999.0,'11133222,11111222,99999999' 
TABS,ioos:station:wmo:42044:1,2009-01-25T17:30:00Z,26.1914,-97.0507,2.0,198.3879742,11.63402338,-99999.0,'11111222,11111222,99999999' 
TABS,ioos:station:wmo:42044:1,2009-01-25T18:00:00Z,26.1914,-97.0507,2.0,206.4405381,12.37442928,-99999.0,'11111222,11111222,99999999' 
TABS,ioos:station:wmo:42044:1,2009-01-25T18:30:00Z,26.1914,-97.0507,2.0,198.8234385,12.11812692,-99999.0,'11111222,11111222,99999999' 
TABS,ioos:station:wmo:42044:1,2009-01-25T19:00:00Z,26.1914,-97.0507,2.0,199.5118739,12.78418554,-99999.0,'11111222,11111222,99999999' 
TABS,ioos:station:wmo:42044:1,2009-01-25T19:30:00Z,26.1914,-97.0507,2.0,196.9883439,13.65590349,-99999.0,'11111222,11111222,99999999' 
TABS,ioos:station:wmo:42044:1,2009-01-25T20:00:00Z,26.1914,-97.0507,2.0,199.9765385,15.51342644,-99999.0,'11111222,11111222,99999999' 
TABS,ioos:station:wmo:42044:1,2009-01-25T20:30:00Z,26.1914,-97.0507,2.0,208.6576491,14.45016609,-99999.0,'11111222,11111222,99999999' 
TABS,ioos:station:wmo:42044:1,2009-01-25T21:00:00Z,26.1914,-97.0507,2.0,202.1091862,13.12513619,-99999.0,'11111222,11111222,99999999' 
TABS,ioos:station:wmo:42044:1,2009-01-25T21:30:00Z,26.1914,-97.0507,2.0,210.1276439,11.87411049,-99999.0,'11111222,11111222,99999999' 
TABS,ioos:station:wmo:42044:1,2009-01-25T22:00:00Z,26.1914,-97.0507,2.0,218.5946016,11.02899814,-99999.0,'11111222,11111222,99999999' 
TABS,ioos:station:wmo:42044:1,2009-01-25T22:30:00Z,26.1914,-97.0507,2.0,215.8907905,7.727127539,-99999.0,'11133222,11111222,99999999' 
TABS,ioos:station:wmo:42044:1,2009-01-25T23:00:00Z,26.1914,-97.0507,2.0,212.7700972,11.75006383,-99999.0,'11111222,11111222,99999999' 
TABS,ioos:station:wmo:42044:1,2009-01-25T23:30:00Z,26.1914,-97.0507,2.0,191.4092247,10.16079229,-99999.0,'11111222,11111222,99999999' 
TABS,ioos:station:wmo:42044:1,2009-01-26T00:00:00Z,26.1914,-97.0507,2.0,192.1878716,8.57324326,-99999.0,'11133222,11111222,99999999' 
TABS,ioos:station:wmo:42044:1,2009-01-26T00:30:00Z,26.1914,-97.0507,2.0,204.6211592,10.15311775,-99999.0,'11111222,11111222,99999999' 
TABS,ioos:station:wmo:42044:1,2009-01-26T01:00:00Z,26.1914,-97.0507,2.0,205.831705,9.088124119,-99999.0,'11133222,11111222,99999999' 
TABS,ioos:station:wmo:42044:1,2009-01-26T01:30:00Z,26.1914,-97.0507,2.0,186.8880317,6.003332408,-99999.0,'11133222,11111222,99999999' 
TABS,ioos:station:wmo:42044:1,2009-01-26T02:00:00Z,26.1914,-97.0507,2.0,209.7235018,6.736326892,-99999.0,'11133222,11111222,99999999' 
TABS,ioos:station:wmo:42044:1,2009-01-26T02:30:00Z,26.1914,-97.0507,2.0,201.6923393,6.844742508,-99999.0,'11133222,11111222,99999999' 
TABS,ioos:station:wmo:42044:1,2009-01-26T03:00:00Z,26.1914,-97.0507,2.0,192.2024987,6.670719601,-99999.0,'11133222,11111222,99999999' 
TABS,ioos:station:wmo:42044:1,2009-01-26T03:30:00Z,26.1914,-97.0507,2.0,166.8081286,8.062760073,-99999.0,'11133222,11111222,99999999' 
TABS,ioos:station:wmo:42044:1,2009-01-26T04:00:00Z,26.1914,-97.0507,2.0,185.8275241,8.272756493,-99999.0,'11133222,11111222,99999999' 
TABS,ioos:station:wmo:42044:1,2009-01-26T04:30:00Z,26.1914,-97.0507,2.0,179.6148918,10.42023512,-99999.0,'11111222,11111222,99999999' 
TABS,ioos:station:wmo:42044:1,2009-01-26T05:00:00Z,26.1914,-97.0507,2.0,189.0082722,8.302409289,-99999.0,'11133222,11111222,99999999' 
TABS,ioos:station:wmo:42044:1,2009-01-26T05:30:00Z,26.1914,-97.0507,2.0,195.4439664,10.36425106,-99999.0,'11111222,11111222,99999999' 
TABS,ioos:station:wmo:42044:1,2009-01-26T06:00:00Z,26.1914,-97.0507,2.0,188.4610579,9.786521343,-99999.0,'11133222,11111222,99999999' 
TABS,ioos:station:wmo:42044:1,2009-01-26T06:30:00Z,26.1914,-97.0507,2.0,187.3702403,10.1337308,-99999.0,'11111222,11111222,99999999' 
TABS,ioos:station:wmo:42044:1,2009-01-26T07:00:00Z,26.1914,-97.0507,2.0,192.028462,9.692822086,-99999.0,'11133222,11111222,99999999' 
TABS,ioos:station:wmo:42044:1,2009-01-26T07:30:00Z,26.1914,-97.0507,2.0,194.2743582,9.328000858,-99999.0,'11133222,11111222,99999999' 
TABS,ioos:station:wmo:42044:1,2009-01-26T08:00:00Z,26.1914,-97.0507,2.0,200.9057994,9.38804559,-99999.0,'11133222,11111222,99999999' 
TABS,ioos:station:wmo:42044:1,2009-01-26T08:30:00Z,26.1914,-97.0507,2.0,205.8611358,9.468225811,-99999.0,'11133222,11111222,99999999' 
TABS,ioos:station:wmo:42044:1,2009-01-26T09:00:00Z,26.1914,-97.0507,2.0,210.0320202,7.912275273,-99999.0,'11133222,11111222,99999999' 
TABS,ioos:station:wmo:42044:1,2009-01-26T09:30:00Z,26.1914,-97.0507,2.0,199.4194577,3.127954603,-99999.0,'11133222,11111222,99999999' 
TABS,ioos:station:wmo:42044:1,2009-01-26T10:00:00Z,26.1914,-97.0507,2.0,202.5922919,6.455385349,-99999.0,'11133222,11111222,99999999' 
TABS,ioos:station:wmo:42044:1,2009-01-26T10:30:00Z,26.1914,-97.0507,2.0,201.3843432,3.3184635,-99999.0,'11133222,11111222,99999999' 
TABS,ioos:station:wmo:42044:1,2009-01-26T11:00:00Z,26.1914,-97.0507,2.0,197.8268067,4.76898312,-99999.0,'11133222,11111222,99999999' 
TABS,ioos:station:wmo:42044:1,2009-01-26T11:30:00Z,26.1914,-97.0507,2.0,253.3926373,2.974054472,-99999.0,'11133222,11111222,99999999' 
TABS,ioos:station:wmo:42044:1,2009-01-26T12:00:00Z,26.1914,-97.0507,2.0,222.2405831,3.525478691,-99999.0,'11133222,11111222,99999999' 
TABS,ioos:station:wmo:42044:1,2009-01-26T12:30:00Z,26.1914,-97.0507,2.0,165.3579392,2.294515199,-99999.0,'11133222,11111222,99999999' 
TABS,ioos:station:wmo:42044:1,2009-01-26T13:00:00Z,26.1914,-97.0507,2.0,231.2459853,2.859545418,-99999.0,'11133222,11111222,99999999' 
TABS,ioos:station:wmo:42044:1,2009-01-26T13:30:00Z,26.1914,-97.0507,2.0,208.7636981,2.680783468,-99999.0,'11133222,11111222,99999999' 
TABS,ioos:station:wmo:42044:1,2009-01-26T14:00:00Z,26.1914,-97.0507,2.0,223.194946,4.265969995,-99999.0,'11133222,11111222,99999999' 
TABS,ioos:station:wmo:42044:1,2009-01-26T14:30:00Z,26.1914,-97.0507,2.0,3.814276374,0.150332964,-99999.0,'11133222,11111222,99999999' 
TABS,ioos:station:wmo:42044:1,2009-01-26T15:00:00Z,26.1914,-97.0507,2.0,269.4179174,1.97010152,-99999.0,'11133222,11111222,99999999' 
TABS,ioos:station:wmo:42044:1,2009-01-26T15:30:00Z,26.1914,-97.0507,2.0,294.4159122,1.669281282,-99999.0,'11133222,11111222,99999999' 
TABS,ioos:station:wmo:42044:1,2009-01-26T16:00:00Z,26.1914,-97.0507,2.0,277.3061634,2.35915239,-99999.0,'11133222,11111222,99999999' 
TABS,ioos:station:wmo:42044:1,2009-01-26T16:30:00Z,26.1914,-97.0507,2.0,313.4189357,4.6120928,-99999.0,'11133222,11111222,99999999' 
TABS,ioos:station:wmo:42044:1,2009-01-26T17:00:00Z,26.1914,-97.0507,2.0,316.5951421,6.097622487,-99999.0,'11133222,11111222,99999999' 
TABS,ioos:station:wmo:42044:1,2009-01-26T17:30:00Z,26.1914,-97.0507,2.0,319.3606089,8.091507894,-99999.0,'11133222,11111222,99999999' 
TABS,ioos:station:wmo:42044:1,2009-01-26T18:00:00Z,26.1914,-97.0507,2.0,324.4889344,7.592134087,-99999.0,'11133222,11111222,99999999' 
TABS,ioos:station:wmo:42044:1,2009-01-26T18:30:00Z,26.1914,-97.0507,2.0,317.9146689,7.788247556,-99999.0,'11133222,11111222,99999999' 
TABS,ioos:station:wmo:42044:1,2009-01-26T19:00:00Z,26.1914,-97.0507,2.0,336.1516985,8.681226872,-99999.0,'11133222,11111222,99999999' 
TABS,ioos:station:wmo:42044:1,2009-01-26T19:30:00Z,26.1914,-97.0507,2.0,347.370781,9.879028292,-99999.0,'11133222,11111222,99999999' 
TABS,ioos:station:wmo:42044:1,2009-01-26T20:00:00Z,26.1914,-97.0507,2.0,347.8571833,11.59953447,-99999.0,'11111222,11111222,99999999' 
TABS,ioos:station:wmo:42044:1,2009-01-26T20:30:00Z,26.1914,-97.0507,2.0,344.9938126,11.31590915,-99999.0,'11111222,11111222,99999999' 
TABS,ioos:station:wmo:42044:1,2009-01-26T21:00:00Z,26.1914,-97.0507,2.0,358.0133006,11.53693634,-99999.0,'11111222,11111222,99999999' 
TABS,ioos:station:wmo:42044:1,2009-01-26T21:30:00Z,26.1914,-97.0507,2.0,359.0418225,10.76150547,-99999.0,'11111222,11144222,99999999' 
TABS,ioos:station:wmo:42044:1,2009-01-26T22:00:00Z,26.1914,-97.0507,2.0,15.53753576,11.57292098,-99999.0,'11111222,11111222,99999999' 
TABS,ioos:station:wmo:42044:1,2009-01-26T22:30:00Z,26.1914,-97.0507,2.0,12.14501464,12.78616831,-99999.0,'11111222,11111222,99999999' 
TABS,ioos:station:wmo:42044:1,2009-01-26T23:00:00Z,26.1914,-97.0507,2.0,12.5646998,12.18173222,-99999.0,'11111222,11111222,99999999' 
TABS,ioos:station:wmo:42044:1,2009-01-26T23:30:00Z,26.1914,-97.0507,2.0,16.37876042,11.80922521,-99999.0,'11111222,11111222,99999999' 
TABS,ioos:station:wmo:42044:1,2009-01-27T00:00:00Z,26.1914,-97.0507,2.0,13.84141237,14.96453474,-99999.0,'11111222,11111222,99999999' 
TABS,ioos:station:wmo:42044:1,2009-01-27T00:30:00Z,26.1914,-97.0507,2.0,12.41838855,13.48550704,-99999.0,'11111222,11111222,99999999' 
TABS,ioos:station:wmo:42044:1,2009-01-27T01:00:00Z,26.1914,-97.0507,2.0,19.51700965,14.06831902,-99999.0,'11111222,11111222,99999999' 
TABS,ioos:station:wmo:42044:1,2009-01-27T01:30:00Z,26.1914,-97.0507,2.0,16.8887397,11.01506241,-99999.0,'11111222,11111222,99999999' 
TABS,ioos:station:wmo:42044:1,2009-01-27T02:00:00Z,26.1914,-97.0507,2.0,13.46377005,9.706760531,-99999.0,'11133222,11111222,99999999' 
TABS,ioos:station:wmo:42044:1,2009-01-27T02:30:00Z,26.1914,-97.0507,2.0,14.36131896,9.837403113,-99999.0,'11133222,11111222,99999999' 
TABS,ioos:station:wmo:42044:1,2009-01-27T03:00:00Z,26.1914,-97.0507,2.0,24.33369348,9.877494622,-99999.0,'11133222,11111222,99999999' 
TABS,ioos:station:wmo:42044:1,2009-01-27T03:30:00Z,26.1914,-97.0507,2.0,10.68929013,10.13587687,-99999.0,'11111222,11111222,99999999' 
TABS,ioos:station:wmo:42044:1,2009-01-27T04:00:00Z,26.1914,-97.0507,2.0,38.18642136,7.748044915,-99999.0,'11133222,11111222,99999999' 
TABS,ioos:station:wmo:42044:1,2009-01-27T04:30:00Z,26.1914,-97.0507,2.0,19.65398856,6.095088186,-99999.0,'11133222,11111222,99999999' 
TABS,ioos:station:wmo:42044:1,2009-01-27T05:00:00Z,26.1914,-97.0507,2.0,26.73661455,5.979272531,-99999.0,'11133222,11111222,99999999' 
TABS,ioos:station:wmo:42044:1,2009-01-27T05:30:00Z,26.1914,-97.0507,2.0,16.23619667,7.582400675,-99999.0,'11133222,11111222,99999999' 
TABS,ioos:station:wmo:42044:1,2009-01-27T06:00:00Z,26.1914,-97.0507,2.0,4.742287114,8.830226498,-99999.0,'11133222,11111222,99999999' 
TABS,ioos:station:wmo:42044:1,2009-01-27T06:30:00Z,26.1914,-97.0507,2.0,12.4492455,7.793234245,-99999.0,'11133222,11111222,99999999' 
TABS,ioos:station:wmo:42044:1,2009-01-27T07:00:00Z,26.1914,-97.0507,2.0,11.4473513,6.550297703,-99999.0,'11133222,11111222,99999999' 
TABS,ioos:station:wmo:42044:1,2009-01-27T07:30:00Z,26.1914,-97.0507,2.0,16.30664096,10.89840355,-99999.0,'11111222,11111222,99999999' 
TABS,ioos:station:wmo:42044:1,2009-01-27T08:00:00Z,26.1914,-97.0507,2.0,8.107739421,10.77772239,-99999.0,'11111222,11111222,99999999' 
TABS,ioos:station:wmo:42044:1,2009-01-27T08:30:00Z,26.1914,-97.0507,2.0,7.040703356,10.9324334,-99999.0,'11111222,11111222,99999999' 
TABS,ioos:station:wmo:42044:1,2009-01-27T09:00:00Z,26.1914,-97.0507,2.0,4.320501926,10.08866691,-99999.0,'11111222,11111222,99999999' 
TABS,ioos:station:wmo:42044:1,2009-01-27T09:30:00Z,26.1914,-97.0507,2.0,5.743866091,13.78922768,-99999.0,'11111222,11111222,99999999' 
TABS,ioos:station:wmo:42044:1,2009-01-27T10:00:00Z,26.1914,-97.0507,2.0,10.85514678,10.62002354,-99999.0,'11111222,11111222,99999999' 
TABS,ioos:station:wmo:42044:1,2009-01-27T10:30:00Z,26.1914,-97.0507,2.0,12.71213895,10.17951374,-99999.0,'11111222,11111222,99999999' 
TABS,ioos:station:wmo:42044:1,2009-01-27T11:00:00Z,26.1914,-97.0507,2.0,20.19803454,10.48475083,-99999.0,'11111222,11111222,99999999' 
TABS,ioos:station:wmo:42044:1,2009-01-27T11:30:00Z,26.1914,-97.0507,2.0,22.47959229,10.67080128,-99999.0,'11111222,11111222,99999999' 
TABS,ioos:station:wmo:42044:1,2009-01-27T12:00:00Z,26.1914,-97.0507,2.0,15.25529349,10.717649,-99999.0,'11111222,11111222,99999999' 
TABS,ioos:station:wmo:42044:1,2009-01-27T12:30:00Z,26.1914,-97.0507,2.0,25.58866376,11.80815396,-99999.0,'11111222,11111222,99999999' 
TABS,ioos:station:wmo:42044:1,2009-01-27T13:00:00Z,26.1914,-97.0507,2.0,15.28347629,8.915295845,-99999.0,'11133222,11111222,99999999' 
TABS,ioos:station:wmo:42044:1,2009-01-27T13:30:00Z,26.1914,-97.0507,2.0,13.1998372,9.634542023,-99999.0,'11133222,11111222,99999999' 
TABS,ioos:station:wmo:42044:1,2009-01-27T14:00:00Z,26.1914,-97.0507,2.0,14.56796512,8.627363444,-99999.0,'11133222,11111222,99999999' 
TABS,ioos:station:wmo:42044:1,2009-01-27T14:30:00Z,26.1914,-97.0507,2.0,0.39187381,10.24023926,-99999.0,'11111222,11111222,99999999' 
TABS,ioos:station:wmo:42044:1,2009-01-27T15:00:00Z,26.1914,-97.0507,2.0,16.56805624,9.608938547,-99999.0,'11133222,11111222,99999999' 
TABS,ioos:station:wmo:42044:1,2009-01-27T15:30:00Z,26.1914,-97.0507,2.0,352.6783193,9.023580221,-99999.0,'11133222,11111222,99999999' 
TABS,ioos:station:wmo:42044:1,2009-01-27T16:00:00Z,26.1914,-97.0507,2.0,358.400851,9.673768655,-99999.0,'11133222,11111222,99999999' 
TABS,ioos:station:wmo:42044:1,2009-01-27T16:30:00Z,26.1914,-97.0507,2.0,1.640687444,12.57515407,-99999.0,'11111222,11111222,99999999' 
TABS,ioos:station:wmo:42044:1,2009-01-27T17:00:00Z,26.1914,-97.0507,2.0,0.194432242,11.8000678,-99999.0,'11111222,11111222,99999999' 
TABS,ioos:station:wmo:42044:1,2009-01-27T17:30:00Z,26.1914,-97.0507,2.0,354.2950283,10.56231982,-99999.0,'11111222,11111222,99999999' 
TABS,ioos:station:wmo:42044:1,2009-01-27T18:00:00Z,26.1914,-97.0507,2.0,3.379056857,13.57359569,-99999.0,'11111222,11111222,99999999' 
TABS,ioos:station:wmo:42044:1,2009-01-27T18:30:00Z,26.1914,-97.0507,2.0,346.6993388,13.03978911,-99999.0,'11111222,11111222,99999999' 
TABS,ioos:station:wmo:42044:1,2009-01-27T19:00:00Z,26.1914,-97.0507,2.0,353.3708946,12.4733997,-99999.0,'11111222,11111222,99999999' 
TABS,ioos:station:wmo:42044:1,2009-01-27T19:30:00Z,26.1914,-97.0507,2.0,355.2746093,16.26529127,-99999.0,'11111222,11111222,99999999' 
TABS,ioos:station:wmo:42044:1,2009-01-27T20:00:00Z,26.1914,-97.0507,2.0,347.5048381,14.88251659,-99999.0,'11111222,11111222,99999999' 
TABS,ioos:station:wmo:42044:1,2009-01-27T20:30:00Z,26.1914,-97.0507,2.0,354.9761469,15.52966516,-99999.0,'11111222,11111222,99999999' 
TABS,ioos:station:wmo:42044:1,2009-01-27T21:00:00Z,26.1914,-97.0507,2.0,349.6816876,14.96197848,-99999.0,'11111222,11111222,99999999' 